Data supplied by UK-AIR on 2/7/2009
All Data GMT hour ending 
Status: R =Ratified P=Provisional,P*=As supplied
,,Belfast Centre,,,,,,,,,,,,,,,,,,,,,,,
Date,time,"Carbon monoxide",status,unit,"PM10 particulate matter (Hourly measured)",status,unit,"Nitric oxide",status,unit,"Nitrogen dioxide",status,unit,"Nitrogen oxides as nitrogen dioxide",status,unit,"Ozone",status,unit,"Sulphur dioxide",status,unit
 
01-01-2006,01:00,,,,7,R,ugm-3 (GRAV EQ),,,,,,,,,,,,,,,
01-01-2006,02:00,,,,5,R,ugm-3 (GRAV EQ),,,,,,,,,,40,R,ugm-3,3,R,ugm-3
01-01-2006,03:00,,,,3,R,ugm-3 (GRAV EQ),1,R,ugm-3,4,R,ugm-3,6,R,ugm-3,50,R,ugm-3,3,R,ugm-3
01-01-2006,04:00,,,,4,R,ugm-3 (GRAV EQ),1,R,ugm-3,2,R,ugm-3,4,R,ugm-3,46,R,ugm-3,3,R,ugm-3
01-01-2006,05:00,,,,10,R,ugm-3 (GRAV EQ),1,R,ugm-3,2,R,ugm-3,4,R,ugm-3,50,R,ugm-3,3,R,ugm-3
01-01-2006,06:00,,,,16,R,ugm-3 (GRAV EQ),0,R,ugm-3,2,R,ugm-3,2,R,ugm-3,54,R,ugm-3,3,R,ugm-3
01-01-2006,07:00,,,,23,R,ugm-3 (GRAV EQ),3,R,ugm-3,2,R,ugm-3,6,R,ugm-3,60,R,ugm-3,3,R,ugm-3
01-01-2006,08:00,,,,23,R,ugm-3 (GRAV EQ),1,R,ugm-3,2,R,ugm-3,4,R,ugm-3,60,R,ugm-3,3,R,ugm-3
01-01-2006,09:00,,,,27,R,ugm-3 (GRAV EQ),1,R,ugm-3,2,R,ugm-3,4,R,ugm-3,62,R,ugm-3,3,R,ugm-3
01-01-2006,10:00,,,,26,R,ugm-3 (GRAV EQ),3,R,ugm-3,2,R,ugm-3,6,R,ugm-3,60,R,ugm-3,3,R,ugm-3
01-01-2006,11:00,,,,27,R,ugm-3 (GRAV EQ),1,R,ugm-3,2,R,ugm-3,4,R,ugm-3,60,R,ugm-3,3,R,ugm-3
01-01-2006,12:00,,,,17,R,ugm-3 (GRAV EQ),1,R,ugm-3,4,R,ugm-3,6,R,ugm-3,56,R,ugm-3,3,R,ugm-3
01-01-2006,13:00,,,,16,R,ugm-3 (GRAV EQ),1,R,ugm-3,2,R,ugm-3,4,R,ugm-3,52,R,ugm-3,3,R,ugm-3
01-01-2006,14:00,,,,12,R,ugm-3 (GRAV EQ),1,R,ugm-3,6,R,ugm-3,8,R,ugm-3,52,R,ugm-3,3,R,ugm-3
01-01-2006,15:00,,,,16,R,ugm-3 (GRAV EQ),1,R,ugm-3,8,R,ugm-3,10,R,ugm-3,52,R,ugm-3,3,R,ugm-3
01-01-2006,16:00,,,,10,R,ugm-3 (GRAV EQ),1,R,ugm-3,10,R,ugm-3,11,R,ugm-3,46,R,ugm-3,3,R,ugm-3
01-01-2006,17:00,,,,12,R,ugm-3 (GRAV EQ),1,R,ugm-3,11,R,ugm-3,13,R,ugm-3,46,R,ugm-3,3,R,ugm-3
01-01-2006,18:00,,,,12,R,ugm-3 (GRAV EQ),1,R,ugm-3,10,R,ugm-3,11,R,ugm-3,46,R,ugm-3,3,R,ugm-3
01-01-2006,19:00,,,,14,R,ugm-3 (GRAV EQ),1,R,ugm-3,8,R,ugm-3,10,R,ugm-3,46,R,ugm-3,3,R,ugm-3
01-01-2006,20:00,,,,13,R,ugm-3 (GRAV EQ),0,R,ugm-3,10,R,ugm-3,10,R,ugm-3,44,R,ugm-3,5,R,ugm-3
01-01-2006,21:00,,,,13,R,ugm-3 (GRAV EQ),1,R,ugm-3,10,R,ugm-3,11,R,ugm-3,44,R,ugm-3,5,R,ugm-3
01-01-2006,22:00,,,,13,R,ugm-3 (GRAV EQ),1,R,ugm-3,11,R,ugm-3,13,R,ugm-3,42,R,ugm-3,8,R,ugm-3
01-01-2006,23:00,,,,16,R,ugm-3 (GRAV EQ),1,R,ugm-3,21,R,ugm-3,23,R,ugm-3,32,R,ugm-3,8,R,ugm-3
01-01-2006,24:00,,,,13,R,ugm-3 (GRAV EQ),1,R,ugm-3,17,R,ugm-3,19,R,ugm-3,38,R,ugm-3,5,R,ugm-3
02-01-2006,01:00,,,,12,R,ugm-3 (GRAV EQ),0,R,ugm-3,10,R,ugm-3,10,R,ugm-3,46,R,ugm-3,5,R,ugm-3
02-01-2006,02:00,,,,16,R,ugm-3 (GRAV EQ),,,,,,,,,,26,R,ugm-3,5,R,ugm-3
02-01-2006,03:00,,,,16,R,ugm-3 (GRAV EQ),1,R,ugm-3,23,R,ugm-3,25,R,ugm-3,26,R,ugm-3,5,R,ugm-3
02-01-2006,04:00,,,,14,R,ugm-3 (GRAV EQ),0,R,ugm-3,27,R,ugm-3,27,R,ugm-3,26,R,ugm-3,5,R,ugm-3
02-01-2006,05:00,,,,13,R,ugm-3 (GRAV EQ),0,R,ugm-3,25,R,ugm-3,25,R,ugm-3,24,R,ugm-3,8,R,ugm-3
02-01-2006,06:00,,,,12,R,ugm-3 (GRAV EQ),3,R,ugm-3,25,R,ugm-3,29,R,ugm-3,26,R,ugm-3,8,R,ugm-3
02-01-2006,07:00,,,,13,R,ugm-3 (GRAV EQ),3,R,ugm-3,31,R,ugm-3,34,R,ugm-3,24,R,ugm-3,8,R,ugm-3
02-01-2006,08:00,,,,17,R,ugm-3 (GRAV EQ),14,R,ugm-3,44,R,ugm-3,65,R,ugm-3,14,R,ugm-3,16,R,ugm-3
02-01-2006,09:00,,,,16,R,ugm-3 (GRAV EQ),24,R,ugm-3,57,R,ugm-3,94,R,ugm-3,8,R,ugm-3,13,R,ugm-3
02-01-2006,10:00,,,,17,R,ugm-3 (GRAV EQ),23,R,ugm-3,53,R,ugm-3,88,R,ugm-3,12,R,ugm-3,13,R,ugm-3
02-01-2006,11:00,,,,18,R,ugm-3 (GRAV EQ),23,R,ugm-3,55,R,ugm-3,90,R,ugm-3,12,R,ugm-3,16,R,ugm-3
02-01-2006,12:00,,,,22,R,ugm-3 (GRAV EQ),33,R,ugm-3,61,R,ugm-3,111,R,ugm-3,10,R,ugm-3,16,R,ugm-3
02-01-2006,13:00,,,,33,R,ugm-3 (GRAV EQ),50,R,ugm-3,71,R,ugm-3,147,R,ugm-3,6,R,ugm-3,19,R,ugm-3
02-01-2006,14:00,,,,26,R,ugm-3 (GRAV EQ),40,R,ugm-3,69,R,ugm-3,130,R,ugm-3,8,R,ugm-3,19,R,ugm-3
02-01-2006,15:00,,,,16,R,ugm-3 (GRAV EQ),20,R,ugm-3,48,R,ugm-3,78,R,ugm-3,18,R,ugm-3,11,R,ugm-3
02-01-2006,16:00,,,,14,R,ugm-3 (GRAV EQ),24,R,ugm-3,44,R,ugm-3,80,R,ugm-3,18,R,ugm-3,11,R,ugm-3
02-01-2006,17:00,,,,20,R,ugm-3 (GRAV EQ),39,R,ugm-3,59,R,ugm-3,118,R,ugm-3,8,R,ugm-3,11,R,ugm-3
02-01-2006,18:00,,,,17,R,ugm-3 (GRAV EQ),43,R,ugm-3,57,R,ugm-3,122,R,ugm-3,4,R,ugm-3,13,R,ugm-3
02-01-2006,19:00,,,,10,R,ugm-3 (GRAV EQ),20,R,ugm-3,52,R,ugm-3,82,R,ugm-3,14,R,ugm-3,8,R,ugm-3
02-01-2006,20:00,,,,9,R,ugm-3 (GRAV EQ),5,R,ugm-3,32,R,ugm-3,40,R,ugm-3,32,R,ugm-3,8,R,ugm-3
02-01-2006,21:00,,,,8,R,ugm-3 (GRAV EQ),3,R,ugm-3,21,R,ugm-3,25,R,ugm-3,44,R,ugm-3,5,R,ugm-3
02-01-2006,22:00,,,,8,R,ugm-3 (GRAV EQ),1,R,ugm-3,23,R,ugm-3,25,R,ugm-3,40,R,ugm-3,5,R,ugm-3
02-01-2006,23:00,,,,7,R,ugm-3 (GRAV EQ),1,R,ugm-3,21,R,ugm-3,23,R,ugm-3,38,R,ugm-3,3,R,ugm-3
02-01-2006,24:00,,,,7,R,ugm-3 (GRAV EQ),1,R,ugm-3,17,R,ugm-3,19,R,ugm-3,40,R,ugm-3,3,R,ugm-3
03-01-2006,01:00,,,,7,R,ugm-3 (GRAV EQ),1,R,ugm-3,13,R,ugm-3,15,R,ugm-3,38,R,ugm-3,3,R,ugm-3
03-01-2006,02:00,,,,4,R,ugm-3 (GRAV EQ),,,,,,,,,,36,R,ugm-3,3,R,ugm-3
03-01-2006,03:00,,,,3,R,ugm-3 (GRAV EQ),1,R,ugm-3,8,R,ugm-3,10,R,ugm-3,36,R,ugm-3,3,R,ugm-3
03-01-2006,04:00,,,,4,R,ugm-3 (GRAV EQ),1,R,ugm-3,8,R,ugm-3,10,R,ugm-3,46,R,ugm-3,3,R,ugm-3
03-01-2006,05:00,,,,3,R,ugm-3 (GRAV EQ),1,R,ugm-3,2,R,ugm-3,4,R,ugm-3,62,R,ugm-3,3,R,ugm-3
03-01-2006,06:00,,,,-1,R,ugm-3 (GRAV EQ),1,R,ugm-3,10,R,ugm-3,11,R,ugm-3,54,R,ugm-3,5,R,ugm-3
03-01-2006,07:00,,,,5,R,ugm-3 (GRAV EQ),4,R,ugm-3,29,R,ugm-3,34,R,ugm-3,40,R,ugm-3,8,R,ugm-3
03-01-2006,08:00,,,,14,R,ugm-3 (GRAV EQ),28,R,ugm-3,63,R,ugm-3,105,R,ugm-3,10,R,ugm-3,16,R,ugm-3
03-01-2006,09:00,,,,23,R,ugm-3 (GRAV EQ),59,R,ugm-3,84,R,ugm-3,174,R,ugm-3,6,R,ugm-3,21,R,ugm-3
03-01-2006,10:00,,,,22,R,ugm-3 (GRAV EQ),63,R,ugm-3,80,R,ugm-3,176,R,ugm-3,6,R,ugm-3,19,R,ugm-3
03-01-2006,11:00,,,,29,R,ugm-3 (GRAV EQ),78,R,ugm-3,86,R,ugm-3,204,R,ugm-3,6,R,ugm-3,16,R,ugm-3
03-01-2006,12:00,,,,33,R,ugm-3 (GRAV EQ),75,R,ugm-3,84,R,ugm-3,199,R,ugm-3,12,R,ugm-3,16,R,ugm-3
03-01-2006,13:00,,,,20,R,ugm-3 (GRAV EQ),9,R,ugm-3,42,R,ugm-3,55,R,ugm-3,32,R,ugm-3,8,R,ugm-3
03-01-2006,14:00,,,,22,R,ugm-3 (GRAV EQ),16,R,ugm-3,48,R,ugm-3,73,R,ugm-3,28,R,ugm-3,11,R,ugm-3
03-01-2006,15:00,,,,34,R,ugm-3 (GRAV EQ),48,R,ugm-3,73,R,ugm-3,145,R,ugm-3,8,R,ugm-3,13,R,ugm-3
03-01-2006,16:00,,,,30,R,ugm-3 (GRAV EQ),53,R,ugm-3,69,R,ugm-3,149,R,ugm-3,8,R,ugm-3,13,R,ugm-3
03-01-2006,17:00,,,,40,R,ugm-3 (GRAV EQ),136,R,ugm-3,84,R,ugm-3,292,R,ugm-3,2,R,ugm-3,24,R,ugm-3
03-01-2006,18:00,,,,51,R,ugm-3 (GRAV EQ),196,R,ugm-3,94,R,ugm-3,393,R,ugm-3,2,R,ugm-3,32,R,ugm-3
03-01-2006,19:00,,,,72,R,ugm-3 (GRAV EQ),255,R,ugm-3,111,R,ugm-3,500,R,ugm-3,4,R,ugm-3,45,R,ugm-3
03-01-2006,20:00,,,,83,R,ugm-3 (GRAV EQ),249,R,ugm-3,111,R,ugm-3,491,R,ugm-3,4,R,ugm-3,53,R,ugm-3
03-01-2006,21:00,,,,94,R,ugm-3 (GRAV EQ),284,R,ugm-3,120,R,ugm-3,554,R,ugm-3,4,R,ugm-3,67,R,ugm-3
03-01-2006,22:00,,,,114,R,ugm-3 (GRAV EQ),321,R,ugm-3,122,R,ugm-3,613,R,ugm-3,4,R,ugm-3,69,R,ugm-3
03-01-2006,23:00,,,,98,R,ugm-3 (GRAV EQ),241,R,ugm-3,101,R,ugm-3,470,R,ugm-3,4,R,ugm-3,59,R,ugm-3
03-01-2006,24:00,,,,100,R,ugm-3 (GRAV EQ),253,R,ugm-3,97,R,ugm-3,483,R,ugm-3,4,R,ugm-3,59,R,ugm-3
04-01-2006,01:00,,,,112,R,ugm-3 (GRAV EQ),260,R,ugm-3,97,R,ugm-3,495,R,ugm-3,4,R,ugm-3,67,R,ugm-3
04-01-2006,02:00,,,,98,R,ugm-3 (GRAV EQ),,,,,,,,,,4,R,ugm-3,48,R,ugm-3
04-01-2006,03:00,,,,86,R,ugm-3 (GRAV EQ),248,R,ugm-3,84,R,ugm-3,462,R,ugm-3,2,R,ugm-3,48,R,ugm-3
04-01-2006,04:00,,,,73,R,ugm-3 (GRAV EQ),206,R,ugm-3,73,R,ugm-3,388,R,ugm-3,2,R,ugm-3,43,R,ugm-3
04-01-2006,05:00,,,,74,R,ugm-3 (GRAV EQ),259,R,ugm-3,78,R,ugm-3,474,R,ugm-3,2,R,ugm-3,45,R,ugm-3
04-01-2006,06:00,,,,72,R,ugm-3 (GRAV EQ),254,R,ugm-3,80,R,ugm-3,468,R,ugm-3,2,R,ugm-3,43,R,ugm-3
04-01-2006,07:00,,,,47,R,ugm-3 (GRAV EQ),201,R,ugm-3,84,R,ugm-3,392,R,ugm-3,2,R,ugm-3,40,R,ugm-3
04-01-2006,08:00,,,,48,R,ugm-3 (GRAV EQ),344,R,ugm-3,128,R,ugm-3,653,R,ugm-3,2,R,ugm-3,43,R,ugm-3
04-01-2006,09:00,,,,87,R,ugm-3 (GRAV EQ),629,R,ugm-3,210,R,ugm-3,1171,R,ugm-3,2,R,ugm-3,53,R,ugm-3
04-01-2006,10:00,,,,61,R,ugm-3 (GRAV EQ),304,R,ugm-3,134,R,ugm-3,598,R,ugm-3,2,R,ugm-3,32,R,ugm-3
04-01-2006,11:00,,,,23,R,ugm-3 (GRAV EQ),83,R,ugm-3,69,R,ugm-3,195,R,ugm-3,2,R,ugm-3,27,R,ugm-3
04-01-2006,12:00,,,,20,R,ugm-3 (GRAV EQ),69,R,ugm-3,69,R,ugm-3,174,R,ugm-3,,,,29,R,ugm-3
04-01-2006,13:00,,,,21,R,ugm-3 (GRAV EQ),,,,,,,,,,,,,,,
04-01-2006,14:00,,,,12,R,ugm-3 (GRAV EQ),,,,,,,,,,18,R,ugm-3,13,R,ugm-3
04-01-2006,15:00,,,,13,R,ugm-3 (GRAV EQ),25,R,ugm-3,53,R,ugm-3,92,R,ugm-3,18,R,ugm-3,13,R,ugm-3
04-01-2006,16:00,,,,14,R,ugm-3 (GRAV EQ),26,R,ugm-3,57,R,ugm-3,97,R,ugm-3,14,R,ugm-3,13,R,ugm-3
04-01-2006,17:00,,,,18,R,ugm-3 (GRAV EQ),53,R,ugm-3,73,R,ugm-3,153,R,ugm-3,4,R,ugm-3,16,R,ugm-3
04-01-2006,18:00,,,,22,R,ugm-3 (GRAV EQ),59,R,ugm-3,78,R,ugm-3,168,R,ugm-3,6,R,ugm-3,16,R,ugm-3
04-01-2006,19:00,,,,17,R,ugm-3 (GRAV EQ),23,R,ugm-3,71,R,ugm-3,105,R,ugm-3,6,R,ugm-3,13,R,ugm-3
04-01-2006,20:00,,,,18,R,ugm-3 (GRAV EQ),15,R,ugm-3,61,R,ugm-3,84,R,ugm-3,10,R,ugm-3,13,R,ugm-3
04-01-2006,21:00,,,,13,R,ugm-3 (GRAV EQ),4,R,ugm-3,34,R,ugm-3,40,R,ugm-3,30,R,ugm-3,8,R,ugm-3
04-01-2006,22:00,,,,9,R,ugm-3 (GRAV EQ),3,R,ugm-3,29,R,ugm-3,32,R,ugm-3,36,R,ugm-3,8,R,ugm-3
04-01-2006,23:00,,,,12,R,ugm-3 (GRAV EQ),1,R,ugm-3,27,R,ugm-3,29,R,ugm-3,36,R,ugm-3,11,R,ugm-3
04-01-2006,24:00,,,,8,R,ugm-3 (GRAV EQ),3,R,ugm-3,25,R,ugm-3,29,R,ugm-3,38,R,ugm-3,5,R,ugm-3
05-01-2006,01:00,,,,7,R,ugm-3 (GRAV EQ),1,R,ugm-3,19,R,ugm-3,21,R,ugm-3,42,R,ugm-3,5,R,ugm-3
05-01-2006,02:00,,,,5,R,ugm-3 (GRAV EQ),,,,,,,,,,42,R,ugm-3,5,R,ugm-3
05-01-2006,03:00,,,,5,R,ugm-3 (GRAV EQ),0,R,ugm-3,15,R,ugm-3,15,R,ugm-3,44,R,ugm-3,5,R,ugm-3
05-01-2006,04:00,,,,3,R,ugm-3 (GRAV EQ),0,R,ugm-3,11,R,ugm-3,11,R,ugm-3,42,R,ugm-3,5,R,ugm-3
05-01-2006,05:00,,,,5,R,ugm-3 (GRAV EQ),3,R,ugm-3,13,R,ugm-3,17,R,ugm-3,38,R,ugm-3,5,R,ugm-3
05-01-2006,06:00,,,,5,R,ugm-3 (GRAV EQ),4,R,ugm-3,17,R,ugm-3,23,R,ugm-3,32,R,ugm-3,5,R,ugm-3
05-01-2006,07:00,,,,4,R,ugm-3 (GRAV EQ),6,R,ugm-3,25,R,ugm-3,34,R,ugm-3,30,R,ugm-3,5,R,ugm-3
05-01-2006,08:00,,,,9,R,ugm-3 (GRAV EQ),14,R,ugm-3,38,R,ugm-3,59,R,ugm-3,22,R,ugm-3,5,R,ugm-3
05-01-2006,09:00,,,,13,R,ugm-3 (GRAV EQ),26,R,ugm-3,46,R,ugm-3,86,R,ugm-3,18,R,ugm-3,8,R,ugm-3
05-01-2006,10:00,,,,21,R,ugm-3 (GRAV EQ),23,R,ugm-3,38,R,ugm-3,73,R,ugm-3,22,R,ugm-3,5,R,ugm-3
05-01-2006,11:00,,,,17,R,ugm-3 (GRAV EQ),25,R,ugm-3,42,R,ugm-3,80,R,ugm-3,22,R,ugm-3,8,R,ugm-3
05-01-2006,12:00,,,,17,R,ugm-3 (GRAV EQ),20,R,ugm-3,40,R,ugm-3,71,R,ugm-3,20,R,ugm-3,8,R,ugm-3
05-01-2006,13:00,,,,20,R,ugm-3 (GRAV EQ),23,R,ugm-3,42,R,ugm-3,76,R,ugm-3,20,R,ugm-3,8,R,ugm-3
05-01-2006,14:00,,,,18,R,ugm-3 (GRAV EQ),16,R,ugm-3,38,R,ugm-3,63,R,ugm-3,18,R,ugm-3,5,R,ugm-3
05-01-2006,15:00,,,,20,R,ugm-3 (GRAV EQ),25,R,ugm-3,48,R,ugm-3,86,R,ugm-3,14,R,ugm-3,8,R,ugm-3
05-01-2006,16:00,,,,20,R,ugm-3 (GRAV EQ),30,R,ugm-3,53,R,ugm-3,99,R,ugm-3,12,R,ugm-3,8,R,ugm-3
05-01-2006,17:00,,,,20,R,ugm-3 (GRAV EQ),39,R,ugm-3,57,R,ugm-3,117,R,ugm-3,10,R,ugm-3,8,R,ugm-3
05-01-2006,18:00,,,,20,R,ugm-3 (GRAV EQ),45,R,ugm-3,59,R,ugm-3,128,R,ugm-3,10,R,ugm-3,8,R,ugm-3
05-01-2006,19:00,,,,17,R,ugm-3 (GRAV EQ),23,R,ugm-3,48,R,ugm-3,82,R,ugm-3,12,R,ugm-3,8,R,ugm-3
05-01-2006,20:00,,,,13,R,ugm-3 (GRAV EQ),16,R,ugm-3,42,R,ugm-3,67,R,ugm-3,14,R,ugm-3,8,R,ugm-3
05-01-2006,21:00,,,,17,R,ugm-3 (GRAV EQ),14,R,ugm-3,38,R,ugm-3,59,R,ugm-3,16,R,ugm-3,8,R,ugm-3
05-01-2006,22:00,,,,17,R,ugm-3 (GRAV EQ),10,R,ugm-3,32,R,ugm-3,48,R,ugm-3,18,R,ugm-3,5,R,ugm-3
05-01-2006,23:00,,,,18,R,ugm-3 (GRAV EQ),9,R,ugm-3,40,R,ugm-3,53,R,ugm-3,14,R,ugm-3,8,R,ugm-3
05-01-2006,24:00,,,,18,R,ugm-3 (GRAV EQ),5,R,ugm-3,31,R,ugm-3,38,R,ugm-3,22,R,ugm-3,5,R,ugm-3
06-01-2006,01:00,,,,12,R,ugm-3 (GRAV EQ),5,R,ugm-3,23,R,ugm-3,31,R,ugm-3,28,R,ugm-3,5,R,ugm-3
06-01-2006,02:00,,,,10,R,ugm-3 (GRAV EQ),,,,,,,,,,32,R,ugm-3,5,R,ugm-3
06-01-2006,03:00,,,,13,R,ugm-3 (GRAV EQ),1,R,ugm-3,19,R,ugm-3,21,R,ugm-3,34,R,ugm-3,5,R,ugm-3
06-01-2006,04:00,,,,14,R,ugm-3 (GRAV EQ),0,R,ugm-3,17,R,ugm-3,17,R,ugm-3,32,R,ugm-3,5,R,ugm-3
06-01-2006,05:00,,,,16,R,ugm-3 (GRAV EQ),3,R,ugm-3,19,R,ugm-3,23,R,ugm-3,30,R,ugm-3,8,R,ugm-3
06-01-2006,06:00,,,,22,R,ugm-3 (GRAV EQ),6,R,ugm-3,36,R,ugm-3,46,R,ugm-3,18,R,ugm-3,11,R,ugm-3
06-01-2006,07:00,,,,30,R,ugm-3 (GRAV EQ),25,R,ugm-3,50,R,ugm-3,88,R,ugm-3,10,R,ugm-3,13,R,ugm-3
06-01-2006,08:00,,,,39,R,ugm-3 (GRAV EQ),68,R,ugm-3,73,R,ugm-3,176,R,ugm-3,4,R,ugm-3,16,R,ugm-3
06-01-2006,09:00,,,,53,R,ugm-3 (GRAV EQ),76,R,ugm-3,80,R,ugm-3,197,R,ugm-3,2,R,ugm-3,13,R,ugm-3
06-01-2006,10:00,,,,43,R,ugm-3 (GRAV EQ),68,R,ugm-3,78,R,ugm-3,181,R,ugm-3,2,R,ugm-3,11,R,ugm-3
06-01-2006,11:00,,,,29,R,ugm-3 (GRAV EQ),51,R,ugm-3,69,R,ugm-3,147,R,ugm-3,8,R,ugm-3,11,R,ugm-3
06-01-2006,12:00,,,,21,R,ugm-3 (GRAV EQ),29,R,ugm-3,53,R,ugm-3,97,R,ugm-3,14,R,ugm-3,11,R,ugm-3
06-01-2006,13:00,,,,20,R,ugm-3 (GRAV EQ),34,R,ugm-3,48,R,ugm-3,99,R,ugm-3,16,R,ugm-3,8,R,ugm-3
06-01-2006,14:00,,,,17,R,ugm-3 (GRAV EQ),19,R,ugm-3,46,R,ugm-3,74,R,ugm-3,18,R,ugm-3,8,R,ugm-3
06-01-2006,15:00,,,,25,R,ugm-3 (GRAV EQ),28,R,ugm-3,48,R,ugm-3,90,R,ugm-3,12,R,ugm-3,8,R,ugm-3
06-01-2006,16:00,,,,16,R,ugm-3 (GRAV EQ),29,R,ugm-3,48,R,ugm-3,92,R,ugm-3,10,R,ugm-3,8,R,ugm-3
06-01-2006,17:00,,,,14,R,ugm-3 (GRAV EQ),34,R,ugm-3,50,R,ugm-3,101,R,ugm-3,6,R,ugm-3,11,R,ugm-3
06-01-2006,18:00,,,,18,R,ugm-3 (GRAV EQ),49,R,ugm-3,57,R,ugm-3,132,R,ugm-3,2,R,ugm-3,13,R,ugm-3
06-01-2006,19:00,,,,20,R,ugm-3 (GRAV EQ),48,R,ugm-3,59,R,ugm-3,132,R,ugm-3,0,R,ugm-3,16,R,ugm-3
06-01-2006,20:00,,,,25,R,ugm-3 (GRAV EQ),40,R,ugm-3,59,R,ugm-3,120,R,ugm-3,2,R,ugm-3,21,R,ugm-3
06-01-2006,21:00,,,,35,R,ugm-3 (GRAV EQ),84,R,ugm-3,69,R,ugm-3,197,R,ugm-3,2,R,ugm-3,27,R,ugm-3
06-01-2006,22:00,,,,42,R,ugm-3 (GRAV EQ),95,R,ugm-3,71,R,ugm-3,216,R,ugm-3,2,R,ugm-3,53,R,ugm-3
06-01-2006,23:00,,,,44,R,ugm-3 (GRAV EQ),89,R,ugm-3,71,R,ugm-3,206,R,ugm-3,2,R,ugm-3,56,R,ugm-3
06-01-2006,24:00,,,,51,R,ugm-3 (GRAV EQ),116,R,ugm-3,73,R,ugm-3,250,R,ugm-3,2,R,ugm-3,43,R,ugm-3
07-01-2006,01:00,,,,35,R,ugm-3 (GRAV EQ),85,R,ugm-3,65,R,ugm-3,195,R,ugm-3,2,R,ugm-3,53,R,ugm-3
07-01-2006,02:00,,,,26,R,ugm-3 (GRAV EQ),,,,,,,,,,2,R,ugm-3,37,R,ugm-3
07-01-2006,03:00,,,,40,R,ugm-3 (GRAV EQ),105,R,ugm-3,69,R,ugm-3,229,R,ugm-3,2,R,ugm-3,37,R,ugm-3
07-01-2006,04:00,,,,52,R,ugm-3 (GRAV EQ),136,R,ugm-3,69,R,ugm-3,277,R,ugm-3,2,R,ugm-3,43,R,ugm-3
07-01-2006,05:00,,,,42,R,ugm-3 (GRAV EQ),94,R,ugm-3,59,R,ugm-3,202,R,ugm-3,2,R,ugm-3,48,R,ugm-3
07-01-2006,06:00,,,,34,R,ugm-3 (GRAV EQ),108,R,ugm-3,61,R,ugm-3,225,R,ugm-3,2,R,ugm-3,43,R,ugm-3
07-01-2006,07:00,,,,33,R,ugm-3 (GRAV EQ),99,R,ugm-3,59,R,ugm-3,210,R,ugm-3,2,R,ugm-3,40,R,ugm-3
07-01-2006,08:00,,,,21,R,ugm-3 (GRAV EQ),71,R,ugm-3,57,R,ugm-3,166,R,ugm-3,0,R,ugm-3,35,R,ugm-3
07-01-2006,09:00,,,,30,R,ugm-3 (GRAV EQ),89,R,ugm-3,59,R,ugm-3,195,R,ugm-3,0,R,ugm-3,27,R,ugm-3
07-01-2006,10:00,,,,33,R,ugm-3 (GRAV EQ),100,R,ugm-3,59,R,ugm-3,212,R,ugm-3,2,R,ugm-3,29,R,ugm-3
07-01-2006,11:00,,,,29,R,ugm-3 (GRAV EQ),91,R,ugm-3,57,R,ugm-3,197,R,ugm-3,0,R,ugm-3,21,R,ugm-3
07-01-2006,12:00,,,,27,R,ugm-3 (GRAV EQ),59,R,ugm-3,52,R,ugm-3,141,R,ugm-3,2,R,ugm-3,19,R,ugm-3
07-01-2006,13:00,,,,29,R,ugm-3 (GRAV EQ),36,R,ugm-3,50,R,ugm-3,105,R,ugm-3,2,R,ugm-3,19,R,ugm-3
07-01-2006,14:00,,,,33,R,ugm-3 (GRAV EQ),35,R,ugm-3,48,R,ugm-3,101,R,ugm-3,4,R,ugm-3,16,R,ugm-3
07-01-2006,15:00,,,,38,R,ugm-3 (GRAV EQ),36,R,ugm-3,50,R,ugm-3,105,R,ugm-3,4,R,ugm-3,19,R,ugm-3
07-01-2006,16:00,,,,30,R,ugm-3 (GRAV EQ),25,R,ugm-3,44,R,ugm-3,82,R,ugm-3,4,R,ugm-3,13,R,ugm-3
07-01-2006,17:00,,,,34,R,ugm-3 (GRAV EQ),43,R,ugm-3,55,R,ugm-3,120,R,ugm-3,2,R,ugm-3,21,R,ugm-3
07-01-2006,18:00,,,,40,R,ugm-3 (GRAV EQ),50,R,ugm-3,57,R,ugm-3,134,R,ugm-3,2,R,ugm-3,27,R,ugm-3
07-01-2006,19:00,,,,40,R,ugm-3 (GRAV EQ),55,R,ugm-3,59,R,ugm-3,143,R,ugm-3,2,R,ugm-3,32,R,ugm-3
07-01-2006,20:00,,,,42,R,ugm-3 (GRAV EQ),48,R,ugm-3,57,R,ugm-3,130,R,ugm-3,2,R,ugm-3,37,R,ugm-3
07-01-2006,21:00,,,,33,R,ugm-3 (GRAV EQ),23,R,ugm-3,52,R,ugm-3,86,R,ugm-3,2,R,ugm-3,27,R,ugm-3
07-01-2006,22:00,,,,25,R,ugm-3 (GRAV EQ),10,R,ugm-3,44,R,ugm-3,59,R,ugm-3,6,R,ugm-3,21,R,ugm-3
07-01-2006,23:00,,,,10,R,ugm-3 (GRAV EQ),5,R,ugm-3,29,R,ugm-3,36,R,ugm-3,12,R,ugm-3,13,R,ugm-3
07-01-2006,24:00,,,,12,R,ugm-3 (GRAV EQ),6,R,ugm-3,34,R,ugm-3,44,R,ugm-3,6,R,ugm-3,13,R,ugm-3
08-01-2006,01:00,,,,4,R,ugm-3 (GRAV EQ),4,R,ugm-3,29,R,ugm-3,34,R,ugm-3,8,R,ugm-3,11,R,ugm-3
08-01-2006,02:00,,,,8,R,ugm-3 (GRAV EQ),,,,,,,,,,4,R,ugm-3,11,R,ugm-3
08-01-2006,03:00,,,,7,R,ugm-3 (GRAV EQ),10,R,ugm-3,31,R,ugm-3,46,R,ugm-3,4,R,ugm-3,11,R,ugm-3
08-01-2006,04:00,,,,5,R,ugm-3 (GRAV EQ),4,R,ugm-3,25,R,ugm-3,31,R,ugm-3,10,R,ugm-3,11,R,ugm-3
08-01-2006,05:00,,,,5,R,ugm-3 (GRAV EQ),5,R,ugm-3,29,R,ugm-3,36,R,ugm-3,8,R,ugm-3,11,R,ugm-3
08-01-2006,06:00,,,,9,R,ugm-3 (GRAV EQ),13,R,ugm-3,34,R,ugm-3,53,R,ugm-3,4,R,ugm-3,13,R,ugm-3
08-01-2006,07:00,,,,10,R,ugm-3 (GRAV EQ),25,R,ugm-3,38,R,ugm-3,76,R,ugm-3,2,R,ugm-3,16,R,ugm-3
08-01-2006,08:00,,,,13,R,ugm-3 (GRAV EQ),18,R,ugm-3,38,R,ugm-3,65,R,ugm-3,4,R,ugm-3,13,R,ugm-3
08-01-2006,09:00,,,,12,R,ugm-3 (GRAV EQ),15,R,ugm-3,31,R,ugm-3,53,R,ugm-3,6,R,ugm-3,11,R,ugm-3
08-01-2006,10:00,,,,12,R,ugm-3 (GRAV EQ),9,R,ugm-3,27,R,ugm-3,40,R,ugm-3,10,R,ugm-3,11,R,ugm-3
08-01-2006,11:00,,,,12,R,ugm-3 (GRAV EQ),6,R,ugm-3,25,R,ugm-3,34,R,ugm-3,14,R,ugm-3,8,R,ugm-3
08-01-2006,12:00,,,,13,R,ugm-3 (GRAV EQ),6,R,ugm-3,23,R,ugm-3,32,R,ugm-3,14,R,ugm-3,11,R,ugm-3
08-01-2006,13:00,,,,16,R,ugm-3 (GRAV EQ),10,R,ugm-3,23,R,ugm-3,38,R,ugm-3,16,R,ugm-3,11,R,ugm-3
08-01-2006,14:00,,,,22,R,ugm-3 (GRAV EQ),11,R,ugm-3,29,R,ugm-3,46,R,ugm-3,14,R,ugm-3,11,R,ugm-3
08-01-2006,15:00,,,,20,R,ugm-3 (GRAV EQ),11,R,ugm-3,31,R,ugm-3,48,R,ugm-3,14,R,ugm-3,11,R,ugm-3
08-01-2006,16:00,,,,22,R,ugm-3 (GRAV EQ),11,R,ugm-3,36,R,ugm-3,53,R,ugm-3,10,R,ugm-3,13,R,ugm-3
08-01-2006,17:00,,,,27,R,ugm-3 (GRAV EQ),18,R,ugm-3,46,R,ugm-3,73,R,ugm-3,4,R,ugm-3,19,R,ugm-3
08-01-2006,18:00,,,,25,R,ugm-3 (GRAV EQ),33,R,ugm-3,48,R,ugm-3,97,R,ugm-3,2,R,ugm-3,19,R,ugm-3
08-01-2006,19:00,,,,30,R,ugm-3 (GRAV EQ),43,R,ugm-3,55,R,ugm-3,120,R,ugm-3,2,R,ugm-3,35,R,ugm-3
08-01-2006,20:00,,,,46,R,ugm-3 (GRAV EQ),115,R,ugm-3,71,R,ugm-3,246,R,ugm-3,4,R,ugm-3,59,R,ugm-3
08-01-2006,21:00,,,,64,R,ugm-3 (GRAV EQ),161,R,ugm-3,78,R,ugm-3,325,R,ugm-3,4,R,ugm-3,85,R,ugm-3
08-01-2006,22:00,,,,74,R,ugm-3 (GRAV EQ),184,R,ugm-3,80,R,ugm-3,361,R,ugm-3,6,R,ugm-3,74,R,ugm-3
08-01-2006,23:00,,,,94,R,ugm-3 (GRAV EQ),218,R,ugm-3,86,R,ugm-3,418,R,ugm-3,6,R,ugm-3,98,R,ugm-3
08-01-2006,24:00,,,,82,R,ugm-3 (GRAV EQ),194,R,ugm-3,74,R,ugm-3,371,R,ugm-3,6,R,ugm-3,77,R,ugm-3
09-01-2006,01:00,,,,83,R,ugm-3 (GRAV EQ),181,R,ugm-3,67,R,ugm-3,344,R,ugm-3,4,R,ugm-3,69,R,ugm-3
09-01-2006,02:00,,,,86,R,ugm-3 (GRAV EQ),,,,,,,,,,4,R,ugm-3,56,R,ugm-3
09-01-2006,03:00,,,,81,R,ugm-3 (GRAV EQ),133,R,ugm-3,57,R,ugm-3,260,R,ugm-3,4,R,ugm-3,53,R,ugm-3
09-01-2006,04:00,,,,31,R,ugm-3 (GRAV EQ),73,R,ugm-3,44,R,ugm-3,155,R,ugm-3,2,R,ugm-3,27,R,ugm-3
09-01-2006,05:00,,,,23,R,ugm-3 (GRAV EQ),58,R,ugm-3,44,R,ugm-3,132,R,ugm-3,0,R,ugm-3,24,R,ugm-3
09-01-2006,06:00,,,,23,R,ugm-3 (GRAV EQ),61,R,ugm-3,52,R,ugm-3,145,R,ugm-3,2,R,ugm-3,24,R,ugm-3
09-01-2006,07:00,,,,9,R,ugm-3 (GRAV EQ),34,R,ugm-3,42,R,ugm-3,94,R,ugm-3,2,R,ugm-3,19,R,ugm-3
09-01-2006,08:00,,,,13,R,ugm-3 (GRAV EQ),115,R,ugm-3,71,R,ugm-3,246,R,ugm-3,0,R,ugm-3,35,R,ugm-3
09-01-2006,09:00,,,,16,R,ugm-3 (GRAV EQ),104,R,ugm-3,69,R,ugm-3,227,R,ugm-3,2,R,ugm-3,29,R,ugm-3
09-01-2006,10:00,,,,13,R,ugm-3 (GRAV EQ),73,R,ugm-3,61,R,ugm-3,172,R,ugm-3,2,R,ugm-3,21,R,ugm-3
09-01-2006,11:00,,,,17,R,ugm-3 (GRAV EQ),64,R,ugm-3,59,R,ugm-3,157,R,ugm-3,4,R,ugm-3,21,R,ugm-3
09-01-2006,12:00,,,,13,R,ugm-3 (GRAV EQ),45,R,ugm-3,53,R,ugm-3,122,R,ugm-3,8,R,ugm-3,16,R,ugm-3
09-01-2006,13:00,,,,16,R,ugm-3 (GRAV EQ),,,,,,,,,,14,R,ugm-3,13,R,ugm-3
09-01-2006,14:00,,,,18,R,ugm-3 (GRAV EQ),,,,,,,,,,10,R,ugm-3,11,R,ugm-3
09-01-2006,15:00,,,,12,R,ugm-3 (GRAV EQ),,,,,,,,,,12,R,ugm-3,11,R,ugm-3
09-01-2006,16:00,,,,14,R,ugm-3 (GRAV EQ),,,,,,,,,,12,R,ugm-3,16,R,ugm-3
09-01-2006,17:00,,,,13,R,ugm-3 (GRAV EQ),,,,,,,,,,10,R,ugm-3,13,R,ugm-3
09-01-2006,18:00,,,,12,R,ugm-3 (GRAV EQ),50,R,ugm-3,50,R,ugm-3,126,R,ugm-3,6,R,ugm-3,13,R,ugm-3
09-01-2006,19:00,,,,10,R,ugm-3 (GRAV EQ),25,R,ugm-3,38,R,ugm-3,76,R,ugm-3,12,R,ugm-3,8,R,ugm-3
09-01-2006,20:00,,,,13,R,ugm-3 (GRAV EQ),18,R,ugm-3,34,R,ugm-3,61,R,ugm-3,18,R,ugm-3,11,R,ugm-3
09-01-2006,21:00,,,,7,R,ugm-3 (GRAV EQ),8,R,ugm-3,23,R,ugm-3,34,R,ugm-3,28,R,ugm-3,8,R,ugm-3
09-01-2006,22:00,,,,4,R,ugm-3 (GRAV EQ),4,R,ugm-3,21,R,ugm-3,27,R,ugm-3,34,R,ugm-3,8,R,ugm-3
09-01-2006,23:00,,,,4,R,ugm-3 (GRAV EQ),3,R,ugm-3,17,R,ugm-3,21,R,ugm-3,32,R,ugm-3,8,R,ugm-3
09-01-2006,24:00,,,,1,R,ugm-3 (GRAV EQ),1,R,ugm-3,10,R,ugm-3,11,R,ugm-3,38,R,ugm-3,5,R,ugm-3
10-01-2006,01:00,,,,0,R,ugm-3 (GRAV EQ),3,R,ugm-3,8,R,ugm-3,11,R,ugm-3,42,R,ugm-3,5,R,ugm-3
10-01-2006,02:00,,,,1,R,ugm-3 (GRAV EQ),,,,,,,,,,34,R,ugm-3,5,R,ugm-3
10-01-2006,03:00,,,,-4,R,ugm-3 (GRAV EQ),1,R,ugm-3,11,R,ugm-3,13,R,ugm-3,38,R,ugm-3,5,R,ugm-3
10-01-2006,04:00,,,,,,,0,R,ugm-3,6,R,ugm-3,6,R,ugm-3,40,R,ugm-3,3,R,ugm-3
10-01-2006,05:00,,,,,,,1,R,ugm-3,13,R,ugm-3,15,R,ugm-3,34,R,ugm-3,5,R,ugm-3
10-01-2006,06:00,,,,,,,5,R,ugm-3,21,R,ugm-3,29,R,ugm-3,28,R,ugm-3,8,R,ugm-3
10-01-2006,07:00,,,,-5,R,ugm-3 (GRAV EQ),14,R,ugm-3,36,R,ugm-3,57,R,ugm-3,18,R,ugm-3,8,R,ugm-3
10-01-2006,08:00,,,,-1,R,ugm-3 (GRAV EQ),30,R,ugm-3,57,R,ugm-3,103,R,ugm-3,10,R,ugm-3,11,R,ugm-3
10-01-2006,09:00,,,,1,R,ugm-3 (GRAV EQ),30,R,ugm-3,57,R,ugm-3,103,R,ugm-3,10,R,ugm-3,13,R,ugm-3
10-01-2006,10:00,,,,3,R,ugm-3 (GRAV EQ),30,R,ugm-3,57,R,ugm-3,103,R,ugm-3,14,R,ugm-3,13,R,ugm-3
10-01-2006,11:00,,,,1,R,ugm-3 (GRAV EQ),24,R,ugm-3,48,R,ugm-3,84,R,ugm-3,20,R,ugm-3,11,R,ugm-3
10-01-2006,12:00,,,,7,R,ugm-3 (GRAV EQ),41,R,ugm-3,63,R,ugm-3,126,R,ugm-3,20,R,ugm-3,11,R,ugm-3
10-01-2006,13:00,,,,4,R,ugm-3 (GRAV EQ),23,R,ugm-3,42,R,ugm-3,76,R,ugm-3,22,R,ugm-3,8,R,ugm-3
10-01-2006,14:00,,,,0,R,ugm-3 (GRAV EQ),18,R,ugm-3,36,R,ugm-3,63,R,ugm-3,22,R,ugm-3,5,R,ugm-3
10-01-2006,15:00,,,,3,R,ugm-3 (GRAV EQ),19,R,ugm-3,36,R,ugm-3,65,R,ugm-3,24,R,ugm-3,8,R,ugm-3
10-01-2006,16:00,,,,4,R,ugm-3 (GRAV EQ),15,R,ugm-3,31,R,ugm-3,53,R,ugm-3,26,R,ugm-3,8,R,ugm-3
10-01-2006,17:00,,,,1,R,ugm-3 (GRAV EQ),35,R,ugm-3,44,R,ugm-3,97,R,ugm-3,18,R,ugm-3,8,R,ugm-3
10-01-2006,18:00,,,,1,R,ugm-3 (GRAV EQ),28,R,ugm-3,38,R,ugm-3,80,R,ugm-3,20,R,ugm-3,8,R,ugm-3
10-01-2006,19:00,,,,-1,R,ugm-3 (GRAV EQ),14,R,ugm-3,25,R,ugm-3,46,R,ugm-3,30,R,ugm-3,5,R,ugm-3
10-01-2006,20:00,,,,,,,3,R,ugm-3,15,R,ugm-3,19,R,ugm-3,50,R,ugm-3,3,R,ugm-3
10-01-2006,21:00,,,,8,R,ugm-3 (GRAV EQ),3,R,ugm-3,31,R,ugm-3,34,R,ugm-3,44,R,ugm-3,3,R,ugm-3
10-01-2006,22:00,,,,17,R,ugm-3 (GRAV EQ),5,R,ugm-3,36,R,ugm-3,44,R,ugm-3,36,R,ugm-3,5,R,ugm-3
10-01-2006,23:00,,,,10,R,ugm-3 (GRAV EQ),1,R,ugm-3,21,R,ugm-3,23,R,ugm-3,46,R,ugm-3,5,R,ugm-3
10-01-2006,24:00,,,,13,R,ugm-3 (GRAV EQ),3,R,ugm-3,19,R,ugm-3,23,R,ugm-3,44,R,ugm-3,3,R,ugm-3
11-01-2006,01:00,,,,13,R,ugm-3 (GRAV EQ),3,R,ugm-3,11,R,ugm-3,15,R,ugm-3,50,R,ugm-3,3,R,ugm-3
11-01-2006,02:00,,,,13,R,ugm-3 (GRAV EQ),,,,,,,,,,58,R,ugm-3,3,R,ugm-3
11-01-2006,03:00,,,,8,R,ugm-3 (GRAV EQ),0,R,ugm-3,4,R,ugm-3,4,R,ugm-3,66,R,ugm-3,3,R,ugm-3
11-01-2006,04:00,,,,,,,1,R,ugm-3,0,R,ugm-3,2,R,ugm-3,72,R,ugm-3,3,R,ugm-3
11-01-2006,05:00,,,,0,R,ugm-3 (GRAV EQ),1,R,ugm-3,6,R,ugm-3,8,R,ugm-3,64,R,ugm-3,3,R,ugm-3
11-01-2006,06:00,,,,0,R,ugm-3 (GRAV EQ),1,R,ugm-3,4,R,ugm-3,6,R,ugm-3,66,R,ugm-3,3,R,ugm-3
11-01-2006,07:00,,,,4,R,ugm-3 (GRAV EQ),3,R,ugm-3,8,R,ugm-3,11,R,ugm-3,62,R,ugm-3,3,R,ugm-3
11-01-2006,08:00,,,,8,R,ugm-3 (GRAV EQ),6,R,ugm-3,23,R,ugm-3,32,R,ugm-3,54,R,ugm-3,3,R,ugm-3
11-01-2006,09:00,,,,12,R,ugm-3 (GRAV EQ),35,R,ugm-3,69,R,ugm-3,122,R,ugm-3,16,R,ugm-3,8,R,ugm-3
11-01-2006,10:00,,,,12,R,ugm-3 (GRAV EQ),28,R,ugm-3,59,R,ugm-3,101,R,ugm-3,22,R,ugm-3,5,R,ugm-3
11-01-2006,11:00,,,,12,R,ugm-3 (GRAV EQ),31,R,ugm-3,53,R,ugm-3,101,R,ugm-3,30,R,ugm-3,5,R,ugm-3
11-01-2006,12:00,,,,14,R,ugm-3 (GRAV EQ),19,R,ugm-3,42,R,ugm-3,71,R,ugm-3,34,R,ugm-3,5,R,ugm-3
11-01-2006,13:00,,,,21,R,ugm-3 (GRAV EQ),23,R,ugm-3,50,R,ugm-3,84,R,ugm-3,30,R,ugm-3,8,R,ugm-3
11-01-2006,14:00,,,,22,R,ugm-3 (GRAV EQ),24,R,ugm-3,52,R,ugm-3,88,R,ugm-3,28,R,ugm-3,8,R,ugm-3